Location: Grange Giacomarda
(44.5167°N, 6.9667°E)
Time: 19:50:08
(UTC+00:00)

Daily predictions for brighter satellites

Satellite Brightness Start Highest point End
(mag) Time Altitude Azimuth Time Altitude Azimuth Time Altitude Azimuth
BREEZE M DEB (TANK) 4.2 19:07:48 10° W 19:11:57 73° NNW 19:28:47 10° ENE
Cosmos 614 Rocket 4.1 19:08:46 10° S 19:13:47 56° ESE 19:18:53 10° NNE
SL-16 R/B 4.3 19:12:48 10° NNE 19:14:54 12° NE 19:17:00 10° ENE
NOSS 3-2 (A) 4.4 19:12:01 10° SSE 19:16:15 22° ESE 19:20:50 10° ENE
Cosmos 389 Rocket 2.6 19:14:30 10° N 19:17:53 52° ENE 19:21:16 10° SSE
COSMOS 2406 3.2 19:13:11 10° SSW 19:18:56 78° ESE 19:24:41 10° NNE
BREEZE-M (TANK) 4.1 19:16:42 10° WSW 19:20:31 76° NNW 19:35:55 10° ENE
Cosmos 1821 Rocket 4.2 19:15:49 10° SSE 19:21:42 50° E 19:27:41 10° NNE
Cosmos 2251 Rocket 4.4 19:17:41 10° SW 19:22:49 55° WNW 19:28:03 10° NNE
USA 267 3.8 19:17:40 10° ENE 19:23:36 36° SE 19:29:29 10° SSW
Cosmos 2369 4.0 19:18:34 10° NNW 19:24:12 53° ENE 19:29:46 10° SE
DMSP B5D2-2 4.1 19:19:22 10° NNE 19:24:34 66° ESE 19:29:47 10° S
Cosmos 2082 Rocket 2.7 19:19:49 10° S 19:24:57 36° ESE 19:30:06 10° NE
Cosmos 1500 Rocket 4.1 19:22:15 10° SSW 19:26:31 62° W 19:30:50 10° N
ARGOS 4.0 19:21:26 10° S 19:26:41 54° W 19:31:58 10° NNW
USA 276 3.8 19:23:58 10° WNW 19:26:52 32° N 19:29:46 10° ENE
SPOT 3 Rocket 3.7 19:24:00 10° SSE 19:29:05 57° ENE 19:34:10 10° N
CZ-2C R/B 2.5 19:23:54 10° NNE 19:29:06 77° ESE 19:34:20 10° S
Cosmos 1867 4.0 19:25:50 10° S 19:30:48 38° ESE 19:35:48 10° NE
IRIDIUM 104 4.3 19:25:52 10° S 19:31:01 66° E 19:36:13 10° N
Cosmos 2278 4.3 19:26:42 10° NNW 19:32:08 42° ENE 19:37:09 12° SE
X-37B 0.5 19:31:30 10° WSW 19:34:39 80° SSE 19:37:50 10° E
Cosmos 2322 Rocket 4.3 19:32:33 10° N 19:35:22 14° NE 19:38:09 10° ENE
Cosmos 1184 Rocket 4.4 19:34:14 13° SE 19:35:53 17° E 19:38:09 10° NE
Cosmos 1666 Rocket 4.0 19:34:54 10° SSE 19:38:57 41° E 19:43:01 10° NNE
IRIDIUM 114 4.3 19:34:57 10° S 19:40:09 80° E 19:45:24 10° N
Shenzhou-11 Module 2.6 19:38:47 10° W 19:40:54 28° SSW 19:42:09 17° SSE
FREGAT/IRIS 4.1 19:38:56 10° SSW 19:41:20 31° W 19:43:44 10° NNW
Cosmos 972 4.4 19:36:40 10° NNW 19:41:49 83° ENE 19:46:41 10° SSE
Intercosmos 25 3.1 19:37:58 10° N 19:42:00 66° E 19:45:11 10° SSE
Resurs 1-3 3.6 19:39:54 10° SSE 19:44:16 80° ENE 19:48:40 10° N
Cosmos 2123 Rocket 4.4 19:39:31 10° N 19:45:30 46° ENE 19:51:03 12° SSE
Cosmos 1000 Rocket 4.5 19:39:28 10° N 19:45:45 75° E 19:51:55 10° SSE
Cosmos 1862 3.9 19:43:16 10° SSW 19:47:17 63° W 19:51:20 10° N
SJ-6B 4.0 19:44:09 10° S 19:48:03 45° W 19:51:54 10° NNW
deb Kosmos-1763 4.3 19:45:39 10° S 19:49:05 43° ESE 19:52:34 10° NNE
Cosmos 2239 Rocket 4.4 19:43:11 10° S 19:49:15 71° E 19:55:23 10° NNE
IRIDIUM 103 4.4 19:44:05 10° S 19:49:18 85° W 19:54:33 10° N
Cosmos 1805 Rocket 3.9 19:45:44 10° SSW 19:50:09 72° W 19:54:38 10° N
ATLAS 5 CENTAUR R/B 3.4 19:49:52 10° NW 19:55:23 42° WSW 20:01:40 10° S
Cosmos 1980 Rocket 2.4 19:51:40 10° NNW 19:57:17 57° ENE 20:01:27 18° SE
Genesis I 3.5 19:54:31 10° NNW 19:58:20 55° NE 20:00:41 21° ESE
USA 234 4.1 19:52:52 10° E 19:58:57 43° NNE 20:05:03 10° NW
Cosmos 1954 Rocket 4.2 19:54:53 10° S 20:00:00 50° ESE 20:05:08 10° NNE
CZ-2C R/B 3.7 19:55:34 10° NNE 20:00:12 88° WNW 20:04:43 10° SSW
Spot 2 Rocket 4.1 19:59:52 18° SE 20:03:15 42° ENE 20:08:02 10° N
Landsat 7 4.4 20:01:04 19° SE 20:04:02 40° ENE 20:08:29 10° N
IGS 5A 4.2 20:01:55 21° SE 20:04:09 37° ENE 20:07:59 10° N
Cosmos 1833 Rocket 3.2 20:03:27 10° SW 20:09:00 62° WNW 20:14:37 10° NNE
Cosmos 1633 Rocket 3.0 20:05:02 10° S 20:09:25 73° E 20:13:51 10° NNE
BREEZE-M DEB (TANK) 3.7 20:06:55 10° WNW 20:09:36 28° N 20:11:05 13° NE
Cosmos 405 Rocket 3.7 20:09:20 24° ESE 20:09:52 25° E 20:12:57 10° NE
Cosmos 1697 Rocket 3.1 20:05:59 10° NNW 20:11:32 62° WSW 20:16:27 13° S
Cosmos 407 Rocket 4.0 20:07:09 10° SSW 20:12:26 64° WNW 20:17:41 10° NNE
Cosmos 1190 Rocket 4.2 20:07:16 10° SSW 20:12:32 78° WNW 20:17:52 10° NNE
Meteor 1-27 Rocket 4.0 20:07:30 10° NNW 20:13:26 75° W 20:19:21 10° S
USA 238 DEB 3.6 20:07:05 10° SSW 20:13:31 58° ESE 20:20:13 10° NE
USA 238 3.7 20:07:13 10° SSW 20:13:38 58° ESE 20:20:20 10° NE
Cosmos 1818 4.5 20:10:42 10° NW 20:15:52 44° WSW 20:20:21 13° S
Cosmos 192 4.4 20:11:52 10° NNW 20:16:46 65° ENE 20:19:34 25° SE
Cosmos 1812 4.3 20:13:17 10° NNW 20:16:48 34° W 20:20:17 10° SSW
Cosmos 1707 Rocket 4.2 20:19:33 10° NNW 20:23:47 52° W 20:27:43 12° S
SL-4 R/B 2.9 20:24:32 10° W 20:28:23 44° NNW 20:31:57 10° NE
Cosmos 1763 Rocket 4.3 20:24:38 10° N 20:29:37 38° ENE 20:31:50 26° ESE
Cosmos 1140 Rocket 4.1 20:24:31 10° SW 20:29:41 58° WNW 20:34:53 10° NNE
CENTAUR R/B 2.7 20:25:58 10° S 20:31:25 45° ESE 20:37:48 10° NE
Cosmos 921 Rocket 3.0 20:28:07 10° NNW 20:32:18 63° ENE 20:33:45 37° SE
Meteor 1-4 Rocket 3.1 20:30:17 10° NNW 20:33:39 50° W 20:35:26 24° SSW
Cosmos 1470 Rocket 3.4 20:32:23 22° S 20:35:10 77° E 20:39:35 10° NNE
Resurs 01 Rocket 2.8 20:38:13 13° SSW 20:41:50 39° W 20:46:00 10° NNW
H-2A R/B 3.8 20:40:00 10° N 20:44:05 65° WNW 20:47:46 13° SSW
OBJECT-B 3.7 20:45:37 10° WSW 20:47:17 13° W 20:48:58 10° WNW
Lacrosse 5 2.3 20:42:27 10° NW 20:47:27 53° NE 20:49:36 31° E
SPOT 1/Viking Rocket 3.5 20:47:14 32° SSE 20:49:43 88° ENE 20:54:59 10° NNW
Cosmos 1862 Rocket 4.1 20:46:31 10° NNW 20:50:54 57° W 20:53:11 26° SSW
Meteor 1-18 Rocket 4.1 20:46:31 10° N 20:52:06 71° ENE 20:54:17 38° SSE
Terra 2.4 20:52:17 35° E 20:53:20 40° ENE 20:57:47 10° N
GP-B 3.6 20:51:43 10° N 20:56:05 58° W 20:58:40 23° SSW
Meteor 1-25 Rocket 4.3 20:52:15 15° SSW 20:56:56 78° W 21:02:36 10° N
Cosmos 1238 Rocket 2.5 20:57:37 59° W 20:57:40 59° W 21:00:36 10° N
USA 32 4.3 20:54:10 17° SSW 20:58:11 66° W 21:03:25 10° N
SL-27 R/B 4.2 21:01:27 20° NE 21:01:27 20° NE 21:02:43 10° NE
SL-16 R/B 2.5 20:54:46 10° NNW 21:00:21 55° ENE 21:02:09 39° ESE
USA 276 3.5 21:00:45 10° WNW 21:03:42 33° N 21:04:05 32° NNE
Cosmos 2219 Rocket 4.4 21:01:37 10° N 21:04:28 14° NE 21:07:18 10° ENE
NOSS 3-2 (A) 3.7 21:00:40 10° SW 21:06:19 66° NW 21:12:50 10° NE
USA 267 3.4 21:00:23 10° NE 21:06:56 74° NW 21:13:26 10° WSW
Cosmos 1850 Rocket 3.9 21:04:42 34° S 21:07:04 76° ESE 21:12:22 10° NNE
Cosmos 2082 Rocket 3.7 21:03:45 10° WSW 21:09:00 37° NW 21:14:16 10° NNE
CARTOSAT-1 3.5 21:10:27 62° S 21:11:10 85° WSW 21:15:31 10° NNW
X-37B 1.6 21:08:09 10° W 21:10:24 43° WNW 21:10:24 43° WNW
NOSS 3-2 (C) 3.3 21:08:30 10° SW 21:14:11 89° NW 21:20:43 10° NE
Cosmos 540 Rocket 3.9 21:09:18 10° N 21:14:17 46° ENE 21:15:09 42° E
Cosmos 1933 Rocket 4.1 21:14:15 31° SW 21:16:09 56° WNW 21:20:32 10° N
ERS-1 Rocket 3.0 21:16:10 49° S 21:17:32 77° WSW 21:22:35 10° NNW
Cosmos 2322 Rocket 2.3 21:14:54 10° NNW 21:20:35 65° ENE 21:21:53 50° ESE
SPOT 5 2.5 21:22:09 68° SSW 21:22:35 77° WSW 21:26:59 10° NNW
Cosmos 841 Rocket 3.6 21:19:21 10° NNW 21:24:31 58° ENE 21:25:15 53° E
Cosmos 1869 Rocket 3.5 21:27:02 74° ENE 21:27:02 74° ENE 21:31:23 10° NNE
Cosmos 468 Rocket 4.3 21:25:11 10° NNW 21:30:25 60° WSW 21:31:33 48° SSW
Cosmos 44 3.4 21:27:18 10° NNW 21:32:13 65° NE 21:32:46 60° E
Cosmos 2360 Rocket 2.7 21:27:08 10° NNW 21:32:36 45° ENE 21:33:38 41° E
Cosmos 1500 3.9 21:34:04 48° NNE 21:34:04 48° NNE 21:36:51 10° N
Okean 3 3.9 21:33:39 10° N 21:37:20 53° NE 21:37:20 53° NE
Cosmos 1703 Rocket 4.1 21:34:54 10° NNW 21:39:06 48° W 21:39:27 47° WSW
Cosmos 2100 Rocket 3.9 21:38:31 50° S 21:40:18 90° NW 21:46:29 10° N
Cosmos 1980 Rocket 4.0 21:36:33 10° NW 21:40:49 22° W 21:43:13 17° SW
USA 234 3.2 21:39:52 52° SE 21:41:40 80° SW 21:48:15 10° NW
Cosmos 1437 Rocket 3.8 21:40:14 10° NNW 21:43:29 39° W 21:43:29 39° W
COSMOS 2428 4.4 21:39:47 10° N 21:44:12 22° NE 21:46:03 19° ENE
Cosmos 1814 Rocket 3.9 21:39:04 10° NNW 21:44:17 69° ENE 21:44:35 68° E
Cosmos 1666 4.4 21:46:13 26° NNE 21:46:13 26° NNE 21:48:03 10° NNE
Okean 1-7 3.8 21:42:47 10° NNW 21:46:54 44° W 21:47:04 44° W
ATLAS 3B R/B 2.5 21:48:53 59° SE 21:49:27 62° ESE 21:55:58 10° NE
Cosmos 1570 Rocket 3.9 21:45:17 10° NNW 21:50:38 84° WSW 21:50:58 78° SSW
Cosmos 2173 Rocket 3.9 21:49:15 51° SSW 21:50:55 81° W 21:57:05 10° N
Iridium 4 Rocket 3.3 21:51:54 66° NNW 21:51:54 66° NNW 21:55:35 10° N
Meteor 1-11 Rocket 3.7 21:53:16 66° ESE 21:53:22 66° E 21:59:05 10° NNE
Cosmos 2208 Rocket 3.8 21:51:30 10° NNW 21:56:48 88° WSW 21:56:51 87° SSW
Cosmos 1725 Rocket 3.9 21:58:44 64° SE 21:59:20 68° E 22:05:37 10° NNE
Cosmos 1733 Rocket 4.1 22:02:22 37° NE 22:02:22 37° NE 22:05:16 10° NNE
Cosmos 2333 Rocket 3.3 21:58:04 10° N 22:03:19 34° NE 22:04:16 32° ENE
SL-08 R/B 4.3 22:03:28 71° SE 22:03:55 75° E 22:10:00 10° NNE
Geosat 4.3 22:08:14 58° ENE 22:08:14 58° ENE 22:13:09 10° NNW
Spot 4 4.4 22:08:59 51° NE 22:08:59 51° NE 22:13:10 10° N
SL-4 R/B 3.8 22:05:21 10° WNW 22:08:34 26° N 22:08:50 26° N
Cosmos 1459 Rocket 4.3 22:06:54 42° SW 22:08:52 61° WNW 22:15:11 10° N
Cosmos 2016 Rocket 3.9 22:08:57 65° SSW 22:09:59 85° W 22:16:25 10° N
Cosmos 1066 Rocket 4.2 22:08:33 10° N 22:14:09 68° ENE 22:14:09 68° ENE
Cosmos 2221 Rocket 4.2 22:11:17 10° NNW 22:14:58 55° NW 22:14:58 55° NW
Cosmos 1536 4.2 22:21:12 36° N 22:21:12 36° N 22:23:39 10° N
CENTAUR R/B 3.7 22:16:21 10° WSW 22:22:07 42° NW 22:28:56 10° NNE
Cosmos 1864 Rocket 4.4 22:23:03 70° SW 22:23:43 79° W 22:30:00 10° N
Cosmos 967 Rocket 4.5 22:18:13 10° NW 22:24:31 65° WSW 22:24:43 65° SW
Cosmos 2061 Rocket 4.1 22:24:04 57° SW 22:25:04 66° W 22:31:15 10° N
Meteor 1-13 Rocket 4.5 22:20:40 10° NNW 22:26:03 56° W 22:26:09 56° W
Lacrosse 5 3.3 22:25:43 10° WNW 22:28:46 28° W 22:28:46 28° W
Meteor 1-23 Rocket 4.2 22:24:49 10° N 22:30:34 86° NNE 22:30:34 86° NNE
Terra 3.5 22:31:11 24° W 22:31:12 24° W 22:35:02 10° NW
MOS 1-B Rocket 3.9 22:30:40 10° N 22:36:16 69° WNW 22:36:38 66° W
Cosmos 968 Rocket 4.2 22:38:31 43° NE 22:38:31 43° NE 22:42:07 10° NNE
BREEZE-M DEB (TANK) 4.1 22:37:18 10° WNW 22:41:49 76° NNE 23:01:14 10° ESE
Cosmos 2233 Rocket 3.9 22:42:21 85° SSW 22:42:32 89° W 22:48:55 10° N
SL-16 R/B 3.8 22:39:39 10° NW 22:44:01 23° W 22:44:01 23° W
Cosmos 2219 Rocket 2.4 22:43:54 10° NNW 22:49:17 64° NE 22:49:17 64° NE
Cosmos 2322 3.8 22:44:44 10° NNW 22:49:51 73° NNW 22:49:51 73° NNW
Lacrosse 4 Rocket 3.1 22:58:04 32° N 22:58:04 32° N 23:00:32 10° NNE
Thor Agena Rocket 4.0 22:57:25 10° N 23:01:58 54° NW 23:01:58 54° NW
Cosmos 2322 Rocket 4.0 23:00:04 10° NW 23:03:41 20° W 23:03:41 20° W
Cosmos 2360 Rocket 3.6 23:11:33 10° NW 23:15:23 28° W 23:15:23 28° W
Nimbus 7 Rocket 4.5 23:13:12 10° N 23:18:54 71° WNW 23:18:54 71° WNW
Cosmos 1072 Rocket 4.5 23:20:42 72° NE 23:20:42 72° NE 23:26:22 10° N
Cosmos 44 Rocket 4.2 23:15:28 10° NNW 23:19:07 49° NNW 23:19:07 49° NNW
Cosmos 1891 Rocket 4.5 23:24:51 79° ENE 23:24:51 79° ENE 23:31:07 10° N
ALOS 2 4.3 23:30:35 29° NW 23:30:35 29° NW 23:32:59 10° NNW
COSMOS 2428 3.1 23:23:20 10° NNW 23:28:03 58° NW 23:28:03 58° NW
Cosmos 2297 Rocket 3.5 23:31:44 31° ENE 23:31:44 31° ENE 23:35:22 10° NE
Meteor 2-9 Rocket 4.4 23:31:22 68° NNE 23:31:22 68° NNE 23:36:20 10° N
NOSS 0 Rocket 3.9 23:27:20 10° NNW 23:33:28 77° NE 23:33:28 77° NE
Cosmos 1980 4.1 23:30:05 10° NNW 23:35:28 57° NE 23:35:28 57° NE
Cosmos 2219 4.1 23:39:48 40° ENE 23:39:48 40° ENE 23:43:50 10° NE
ATLAS 3B R/B 3.9 23:36:03 16° W 23:40:30 34° NW 23:46:32 10° NNE
Cosmos 2237 Rocket 2.5 23:38:52 10° NNW 23:44:07 61° NE 23:44:07 61° NE
Cosmos 2333 Rocket 3.3 23:42:18 10° NW 23:46:14 35° WNW 23:46:14 35° WNW
